GW4947 Weather Reports


time (UTC)temp
C
wind
direction
speed
KPH
gust
KPH
rain 1hr
cm
rain 24hr
cm
rain mn
cm
humidity
%
barometer
mb
20260509034322 28 138 4.8 8.0 0.00 0.00 0.00 84 1009.0
20260509033822 28 69 4.8 4.8 0.00 0.00 0.00 84 1009.0
20260509033323 28 357 3.2 3.2 0.00 0.00 0.00 84 1009.0
20260509032823 28 20 3.2 4.8 0.00 0.00 0.00 85 1009.0
20260509032323 28 38 4.8 8.0 0.00 0.00 0.00 84 1009.0
20260509031822 28 0 4.8 4.8 0.00 0.00 0.00 84 1009.0
20260509031323 28 312 1.6 1.6 0.00 0.00 0.00 85 1009.0
20260509030823 28 83 4.8 4.8 0.00 0.00 0.00 84 1009.0
20260509030325 28 28 4.8 4.8 0.00 0.00 0.00 85 1009.0
20260509025823 27 30 4.8 4.8 0.00 0.00 0.00 85 1009.0
20260509025325 28 3 4.8 4.8 0.00 0.00 0.00 85 1009.0
20260509024823 28 76 4.8 4.8 0.00 0.00 0.00 86 1008.0
20260509024324 27 160 1.6 1.6 0.00 0.00 0.00 86 1008.0
20260509023822 27 54 4.8 4.8 0.00 0.00 0.00 86 1008.0
20260509023325 28 134 4.8 9.7 0.00 0.00 0.00 86 1008.0
20260509022822 27 39 3.2 3.2 0.00 0.00 0.00 87 1008.0
20260509022322 27 121 1.6 1.6 0.00 0.00 0.00 88 1008.0
20260509021824 27 18 8.0 9.7 0.00 0.00 0.00 88 1008.0
20260509021325 27 33 3.2 3.2 0.00 0.00 0.00 89 1008.0
20260509020824 27 126 3.2 4.8 0.00 0.00 0.00 90 1008.0
20260509020325 27 121 1.6 1.6 0.00 0.00 0.00 91 1008.0
20260509015823 27 20 3.2 4.8 0.00 0.00 0.00 91 1008.0
20260509015323 26 44 3.2 3.2 0.00 0.00 0.00 91 1008.0
20260509014822 26 10 3.2 4.8 0.00 0.00 0.00 91 1008.0
20260509013848 26 335 3.2 3.2 0.00 0.00 0.00 91 1008.0
20260509013323 26 359 4.8 4.8 0.00 0.00 0.00 91 1008.0
20260509012824 26 123 4.8 4.8 0.00 0.00 0.00 92 1007.0
20260509012323 26 65 4.8 4.8 0.00 0.00 0.00 92 1008.0
20260509011823 26 37 1.6 1.6 0.00 0.00 0.00 92 1007.0
20260509011326 26 100 1.6 3.2 0.00 0.00 0.00 92 1007.0
20260509010823 26 22 4.8 4.8 0.00 0.00 0.00 92 1007.0
20260509010326 26 131 3.2 3.2 0.00 0.00 0.00 91 1007.0
20260509005822 26 11 4.8 8.0 0.00 0.00 0.00 91 1007.0
20260509005322 26 103 4.8 8.0 0.00 0.00 0.00 91 1007.0
20260509004822 26 346 6.4 9.7 0.00 0.00 0.00 91 1007.0
20260509004324 26 59 4.8 4.8 0.00 0.00 0.00 92 1007.0
20260509003823 26 125 4.8 4.8 0.00 0.00 0.00 92 1007.0
20260509003326 26 346 4.8 4.8 0.00 0.00 0.00 92 1007.0
20260509002824 26 346 4.8 4.8 0.00 0.00 0.00 92 1007.0
20260509002326 26 12 1.6 1.6 0.00 0.00 0.00 92 1007.0
20260509001823 26 67 1.6 3.2 0.00 0.00 0.00 92 1007.0
20260509001322 26 131 1.6 1.6 0.00 0.00 0.00 92 1007.0
20260509000823 26 96 1.6 3.2 0.00 0.00 0.00 92 1007.0
20260509000326 26 48 1.6 3.2 0.00 0.00 0.00 92 1007.0
20260508235825 26 110 1.6 1.6 0.00 0.00 0.00 92 1007.0
20260508235322 26 113 3.2 3.2 0.00 0.00 0.00 92 1007.0
20260508234825 26 129 1.6 3.2 0.00 0.00 0.00 92 1007.0
20260508234323 26 36 1.6 3.2 0.00 0.00 0.00 92 1007.0
20260508233823 26 97 3.2 3.2 0.00 0.00 0.00 92 1007.0
20260508233326 26 155 1.6 1.6 0.00 0.00 0.00 92 1007.0
20260508232824 26 114 1.6 3.2 0.00 0.00 0.00 92 1006.0
20260508232325 26 30 4.8 4.8 0.00 0.00 0.00 93 1006.0
20260508231826 26 54 1.6 1.6 0.00 0.00 0.00 93 1006.0
20260508231323 26 85 3.2 3.2 0.00 0.00 0.00 93 1006.0
20260508230822 26 123 1.6 3.2 0.00 0.00 0.00 93 1006.0
20260508230327 26 85 4.8 4.8 0.00 0.00 0.00 93 1007.0
20260508225334 26 101 4.8 4.8 0.00 0.00 0.00 93 1007.0
20260508224828 26 126 3.2 3.2 0.00 0.00 0.00 93 1006.0
20260508224323 26 86 0.0 1.6 0.00 0.00 0.00 93 1007.0
20260508223824 26 122 0.0 0.0 0.00 0.00 0.00 93 1007.0
20260508223324 26 191 3.2 3.2 0.00 0.00 0.00 93 1006.0
20260508222824 26 25 3.2 4.8 0.00 0.00 0.00 93 1006.0
20260508222323 26 70 1.6 1.6 0.00 0.00 0.00 93 1006.0
20260508221824 26 349 4.8 4.8 0.00 0.00 0.00 93 1006.0
20260508221324 26 104 1.6 3.2 0.00 0.00 0.00 93 1006.0
20260508220828 26 91 1.6 3.2 0.00 0.00 0.00 93 1006.0
20260508220323 26 98 1.6 1.6 0.00 0.00 0.00 92 1006.0
20260508215823 26 75 1.6 1.6 0.00 0.00 0.00 92 1006.0
20260508215324 26 59 4.8 4.8 0.00 0.00 0.00 92 1006.0
20260508214823 26 70 3.2 3.2 0.00 0.00 0.00 92 1006.0
20260508214325 26 83 3.2 3.2 0.00 0.00 0.00 92 1006.0
20260508213822 26 115 6.4 8.0 0.00 0.00 0.00 92 1006.0
20260508213325 26 0 4.8 4.8 0.00 0.00 0.00 92 1006.0
20260508212822 26 71 3.2 3.2 0.00 0.00 0.00 92 1006.0
20260508212325 26 281 3.2 3.2 0.00 0.00 0.00 92 1006.0
20260508211826 26 22 4.8 4.8 0.00 0.00 0.00 92 1006.0
20260508211323 26 243 1.6 1.6 0.00 0.00 0.00 92 1007.0
20260508210824 26 72 1.6 3.2 0.00 0.00 0.00 92 1006.0
20260508210324 26 2 4.8 8.0 0.00 0.00 0.00 92 1006.0
20260508205823 26 36 3.2 3.2 0.00 0.00 0.00 92 1007.0
20260508205328 26 91 1.6 1.6 0.00 0.00 0.00 92 1006.0
20260508204826 26 10 4.8 8.0 0.00 0.00 0.00 92 1006.0
20260508204325 26 334 4.8 4.8 0.00 0.00 0.00 93 1006.0
20260508203826 26 117 1.6 1.6 0.00 0.00 0.00 93 1006.0
20260508203325 26 98 1.6 1.6 0.00 0.00 0.00 93 1006.0
20260508202824 26 150 3.2 3.2 0.00 0.00 0.00 93 1006.0
20260508202323 26 329 1.6 3.2 0.00 0.00 0.00 93 1006.0
20260508201826 26 101 1.6 1.6 0.00 0.00 0.00 93 1007.0
20260508201322 26 118 3.2 3.2 0.00 0.00 0.00 92 1007.0
20260508200826 26 72 3.2 3.2 0.00 0.00 0.00 92 1007.0
20260508200324 26 109 1.6 1.6 0.00 0.00 0.00 92 1007.0
20260508195822 26 71 3.2 3.2 0.00 0.00 0.00 92 1007.0
20260508195324 26 35 1.6 3.2 0.00 0.00 0.00 92 1007.0
20260508194824 26 85 3.2 3.2 0.00 0.00 0.00 92 1007.0
20260508194324 26 0 4.8 4.8 0.00 0.00 0.00 92 1007.0
20260508193830 26 128 3.2 3.2 0.00 0.00 0.00 92 1007.0
20260508193325 26 102 1.6 1.6 0.00 0.00 0.00 92 1007.0
20260508192824 26 93 1.6 1.6 0.00 0.00 0.00 92 1007.0
20260508192327 26 121 1.6 1.6 0.00 0.00 0.00 92 1007.0
20260508191825 26 117 1.6 1.6 0.00 0.00 0.00 92 1008.0
20260508191325 26 104 1.6 3.2 0.00 0.00 0.00 92 1008.0
20260508190824 26 86 0.0 0.0 0.00 0.00 0.00 92 1007.0
20260508190325 26 169 1.6 3.2 0.00 0.00 0.00 92 1008.0
20260508185825 26 106 1.6 1.6 0.00 0.00 0.00 92 1008.0
20260508185325 26 119 1.6 1.6 0.00 0.00 0.00 92 1008.0
20260508184825 26 81 0.0 1.6 0.00 0.00 0.00 91 1008.0
20260508184323 26 49 1.6 3.2 0.00 0.00 0.00 91 1008.0
20260508183825 26 120 1.6 3.2 0.00 0.00 0.00 91 1008.0
20260508183335 26 131 1.6 1.6 0.00 0.00 0.00 91 1008.0
20260508182828 26 103 0.0 1.6 0.00 0.00 1.52 91 1008.0
20260508182324 26 59 1.6 3.2 0.00 0.00 1.52 91 1008.0
20260508181824 26 123 1.6 1.6 0.00 0.00 1.52 91 1008.0
20260508181325 26 118 1.6 1.6 0.00 0.00 1.52 91 1008.0
20260508180827 26 116 0.0 0.0 0.00 0.00 1.52 91 1008.0
20260508180322 26 104 1.6 1.6 0.00 0.00 1.52 91 1009.0
20260508175826 26 81 1.6 1.6 0.00 0.00 1.52 91 1009.0
20260508175323 26 111 0.0 1.6 0.00 0.00 1.52 91 1009.0
20260508174825 26 106 1.6 1.6 0.00 0.00 1.52 91 1009.0
20260508174324 26 112 0.0 0.0 0.00 0.00 1.52 91 1009.0
20260508173824 26 111 0.0 1.6 0.00 0.00 1.52 91 1009.0
20260508173323 26 96 1.6 1.6 0.00 0.00 1.52 92 1009.0
20260508172823 26 114 1.6 1.6 0.00 0.00 1.52 92 1009.0
20260508172327 26 114 0.0 0.0 0.00 0.00 1.52 93 1009.0
20260508171824 26 67 1.6 1.6 0.00 0.00 1.52 93 1009.0
20260508171323 26 119 0.0 0.0 0.00 0.00 1.52 93 1009.0
20260508170825 26 112 0.0 0.0 0.00 0.00 1.52 93 1009.0
20260508170325 26 130 0.0 1.6 0.00 0.00 1.52 93 1009.0
20260508165823 26 116 1.6 1.6 0.00 0.00 1.52 93 1009.0
20260508165324 26 121 0.0 1.6 0.00 0.00 1.52 93 1009.0
20260508164826 26 114 0.0 0.0 0.00 0.00 1.52 93 1009.0
20260508164326 26 118 0.0 0.0 0.00 0.00 1.52 93 1009.0
20260508163827 26 119 0.0 0.0 0.00 0.00 1.52 93 1009.0
20260508163324 26 124 0.0 0.0 0.00 0.00 1.52 93 1009.0
20260508162823 26 118 0.0 0.0 0.00 0.00 1.52 93 1008.0
20260508162324 26 116 0.0 0.0 0.00 0.00 1.52 93 1009.0
20260508161824 26 117 0.0 0.0 0.00 0.00 1.52 93 1009.0
20260508161324 26 117 0.0 1.6 0.00 0.00 1.52 93 1008.0
20260508160825 26 119 0.0 1.6 0.00 0.00 1.52 93 1008.0
20260508160324 26 115 0.0 0.0 0.00 0.00 1.52 93 1008.0
20260508155824 26 96 1.6 1.6 0.00 0.00 1.52 93 1009.0
20260508155323 26 121 0.0 0.0 0.00 0.00 1.52 93 1008.0
20260508154823 26 121 0.0 0.0 0.00 0.00 1.52 93 1009.0
20260508154329 26 118 0.0 0.0 0.00 0.00 1.52 92 1009.0
20260508153825 26 109 0.0 0.0 0.00 0.00 1.52 92 1009.0
20260508153329 26 102 0.0 1.6 0.00 0.00 1.52 92 1009.0
20260508152824 26 117 0.0 0.0 0.00 0.00 1.52 92 1008.0
20260508152326 26 123 0.0 0.0 0.00 0.00 1.52 92 1008.0
20260508151824 26 115 0.0 0.0 0.00 0.00 1.52 92 1008.0
20260508151324 26 119 0.0 0.0 0.00 0.00 1.52 92 1008.0
20260508150822 26 119 0.0 0.0 0.00 0.00 1.52 92 1008.0
20260508150326 26 110 0.0 0.0 0.00 0.00 1.52 92 1008.0
20260508145825 26 118 0.0 0.0 0.00 0.00 1.52 92 1008.0
20260508145325 26 115 0.0 0.0 0.00 0.00 1.52 92 1008.0
20260508144822 26 119 0.0 0.0 0.00 0.00 1.52 92 1008.0
20260508144323 26 113 0.0 0.0 0.00 0.00 1.52 92 1008.0
20260508143824 26 117 0.0 0.0 0.00 0.00 1.52 92 1008.0
20260508143324 26 110 0.0 0.0 0.00 0.00 1.52 93 1008.0
20260508142824 26 104 0.0 0.0 0.00 0.00 1.52 93 1008.0
20260508142324 26 118 0.0 0.0 0.00 0.00 1.52 93 1008.0
20260508141824 26 104 0.0 1.6 0.00 0.00 1.52 93 1007.0
20260508141324 26 114 0.0 0.0 0.00 0.00 1.52 93 1007.0
20260508140824 26 115 0.0 0.0 0.00 0.00 1.52 93 1008.0
20260508140325 26 119 0.0 0.0 0.00 0.00 1.52 93 1007.0
20260508135825 26 121 0.0 0.0 0.00 0.00 1.52 93 1007.0
20260508135322 26 110 0.0 0.0 0.00 0.00 1.52 92 1007.0
20260508134825 26 115 0.0 0.0 0.00 0.00 1.52 92 1007.0
20260508134324 26 114 0.0 1.6 0.00 0.00 1.52 92 1007.0
20260508133823 26 116 0.0 0.0 0.00 0.00 1.52 92 1007.0
20260508133322 26 116 0.0 0.0 0.00 0.00 1.52 92 1007.0
20260508132824 26 116 0.0 0.0 0.00 0.00 1.52 92 1007.0
20260508132327 26 119 0.0 0.0 0.00 0.00 1.52 92 1007.0
20260508131826 26 101 0.0 0.0 0.00 0.00 1.52 92 1007.0
20260508131325 26 99 0.0 1.6 0.00 0.00 1.52 92 1007.0
20260508130824 26 79 3.2 3.2 0.00 0.00 1.52 91 1007.0
20260508130325 26 101 1.6 1.6 0.00 0.00 1.52 91 1007.0
20260508125824 27 78 0.0 1.6 0.00 0.00 1.52 91 1007.0
20260508125324 27 113 0.0 0.0 0.00 0.00 1.52 91 1007.0
20260508124825 26 118 1.6 1.6 0.00 0.00 1.52 91 1007.0
20260508124325 26 97 1.6 1.6 0.00 0.00 1.52 91 1007.0
20260508123826 27 71 1.6 3.2 0.00 0.00 1.52 92 1006.0
20260508123325 27 112 0.0 1.6 0.00 0.00 1.52 92 1007.0
20260508122824 27 110 0.0 0.0 0.00 0.00 1.52 92 1007.0
20260508122324 27 91 3.2 3.2 0.00 0.00 1.52 92 1006.0
20260508121824 26 113 0.0 0.0 0.00 0.00 1.52 92 1007.0
20260508121325 26 117 0.0 0.0 0.00 0.00 1.52 92 1006.0
20260508120825 26 117 0.0 0.0 0.13 0.00 1.52 93 1006.0
20260508120325 26 112 0.0 0.0 0.13 0.00 1.52 93 1006.0
20260508115824 26 117 0.0 0.0 0.13 0.00 1.52 93 1006.0
20260508115326 26 119 0.0 0.0 0.18 0.00 1.50 93 1006.0
20260508114823 27 117 0.0 0.0 0.18 0.00 1.50 93 1006.0
20260508114325 27 125 0.0 0.0 0.18 0.00 1.50 93 1006.0
20260508113823 27 121 0.0 0.0 0.13 0.00 1.47 93 1006.0
20260508113324 27 124 0.0 0.0 0.13 0.00 1.47 93 1006.0
20260508112827 27 125 0.0 0.0 0.18 0.00 1.45 93 1006.0
20260508112329 26 111 0.0 1.6 0.18 0.00 1.45 93 1005.0
20260508111824 26 122 0.0 0.0 0.00 0.00 1.42 93 1006.0
20260508111323 26 121 0.0 0.0 0.00 0.00 1.42 93 1005.0
20260508110828 26 122 0.0 0.0 0.00 0.00 1.42 93 1005.0
20260508110326 26 146 1.6 3.2 0.00 0.00 1.42 93 1005.0
20260508105824 26 142 1.6 1.6 0.00 0.00 1.42 93 1006.0
20260508105323 26 117 0.0 0.0 0.00 0.00 1.42 93 1005.0
20260508104822 26 118 0.0 0.0 0.00 0.00 1.42 93 1006.0
20260508104327 26 119 0.0 0.0 0.00 0.00 1.42 93 1006.0
20260508103824 26 93 0.0 0.0 0.00 0.00 1.42 93 1006.0
20260508103326 26 116 0.0 0.0 0.00 0.00 1.42 93 1006.0
20260508102825 26 116 0.0 0.0 0.00 0.00 1.42 93 1006.0
20260508102323 26 116 0.0 0.0 0.00 0.00 1.42 93 1006.0
20260508101826 26 122 1.6 3.2 0.00 0.00 1.42 93 1006.0
20260508101324 26 119 0.0 0.0 0.00 0.00 1.42 93 1006.0
20260508100824 26 143 1.6 1.6 0.00 0.00 1.42 93 1006.0
20260508100326 26 154 1.6 1.6 0.00 0.00 1.42 92 1005.0
20260508095822 26 127 0.0 0.0 0.18 0.00 1.42 93 1006.0
20260508095327 26 124 0.0 0.0 0.18 0.00 1.42 92 1006.0
20260508094824 26 128 0.0 0.0 0.00 0.00 1.40 92 1006.0
20260508094324 26 109 0.0 0.0 0.00 0.00 1.40 92 1006.0
20260508093826 26 110 0.0 0.0 0.00 0.00 1.40 92 1006.0
20260508093326 25 13 3.2 3.2 0.00 0.00 1.40 92 1006.0
20260508092824 25 98 3.2 3.2 0.00 0.00 1.40 92 1006.0
20260508092326 25 100 3.2 4.8 0.00 0.00 1.40 92 1006.0
20260508091824 25 81 3.2 3.2 0.00 0.00 1.40 92 1005.0
20260508091332 25 117 0.0 0.0 0.00 0.00 1.40 92 1006.0
20260508090835 25 43 3.2 3.2 0.00 0.00 1.40 91 1006.0
20260508090327 25 329 3.2 3.2 0.00 0.00 1.40 92 1006.0
20260508085824 25 70 4.8 8.0 0.00 0.00 1.40 91 1006.0
20260508085324 25 125 3.2 4.8 0.13 0.00 1.40 91 1006.0
20260508084824 25 25 6.4 8.0 0.61 0.00 1.40 91 1006.0
20260508084324 26 315 4.8 8.0 0.71 0.00 1.40 91 1006.0
20260508083824 27 127 1.6 3.2 1.68 0.00 1.30 92 1006.0
20260508083325 27 57 3.2 4.8 3.78 0.00 1.24 91 1006.0
20260508082824 27 64 12.9 14.5 2.59 0.00 1.02 88 1006.0
20260508082322 28 94 3.2 3.2 0.48 0.00 0.61 83 1006.0
20260508081826 31 107 4.8 9.7 0.30 0.00 0.58 75 1006.0
20260508081326 31 105 1.6 1.6 0.00 0.00 0.53 69 1006.0
20260508080826 32 74 1.6 3.2 0.00 0.00 0.53 67 1006.0
20260508080327 32 86 1.6 1.6 0.00 0.00 0.53 66 1006.0
20260508075825 32 123 1.6 1.6 0.00 0.00 0.53 67 1006.0
20260508075326 32 95 1.6 1.6 0.00 0.00 0.53 66 1006.0
20260508074824 32 135 1.6 1.6 0.00 0.00 0.53 66 1006.0
20260508074322 33 140 1.6 1.6 0.00 0.00 0.53 63 1006.0
20260508073826 32 128 0.0 1.6 0.00 0.00 0.53 67 1006.0
20260508073326 32 83 1.6 1.6 0.00 0.00 0.53 67 1007.0
20260508072823 32 102 1.6 1.6 0.00 0.00 0.53 67 1007.0
20260508072325 32 150 0.0 1.6 0.00 0.00 0.53 66 1007.0
20260508071826 33 169 3.2 3.2 0.00 0.00 0.53 66 1007.0
20260508071326 33 165 1.6 1.6 0.00 0.00 0.53 65 1007.0
20260508070826 33 125 1.6 1.6 0.00 0.00 0.53 67 1007.0
20260508070325 32 105 3.2 4.8 0.00 0.00 0.53 69 1007.0
20260508065824 32 72 1.6 1.6 0.00 0.00 0.53 69 1007.0
20260508065323 32 116 0.0 0.0 0.00 0.00 0.53 69 1007.0
20260508064825 32 85 1.6 3.2 0.00 0.00 0.53 69 1007.0
20260508064326 32 105 3.2 4.8 0.00 0.00 0.53 68 1007.0
20260508063826 32 140 1.6 3.2 0.00 0.00 0.53 69 1007.0
20260508063324 32 117 0.0 0.0 0.00 0.00 0.53 70 1007.0
20260508062824 32 100 1.6 3.2 0.00 0.00 0.53 71 1008.0
20260508062326 32 85 1.6 3.2 0.00 0.00 0.53 71 1008.0
20260508061827 32 66 1.6 1.6 0.00 0.00 0.53 72 1008.0
20260508061323 32 11 4.8 4.8 0.00 0.00 0.53 72 1008.0
20260508060826 31 115 1.6 1.6 0.00 0.00 0.53 74 1008.0
20260508060325 31 92 3.2 3.2 0.00 0.00 0.53 74 1008.0
20260508055822 31 116 1.6 1.6 0.00 0.00 0.53 74 1008.0
20260508055326 31 76 1.6 3.2 0.00 0.00 0.53 74 1008.0
20260508054826 32 121 1.6 3.2 0.00 0.00 0.53 73 1008.0
20260508054326 31 122 0.0 0.0 0.00 0.00 0.53 75 1008.0
20260508053824 31 127 0.0 0.0 0.00 0.00 0.53 76 1008.0
20260508053324 31 90 1.6 1.6 0.00 0.00 0.53 76 1008.0
20260508052826 31 128 1.6 1.6 0.00 0.00 0.53 75 1008.0
20260508052324 30 106 3.2 3.2 0.00 0.00 0.53 74 1008.0
20260508051826 30 109 3.2 3.2 0.00 0.00 0.53 76 1008.0
20260508051326 30 91 4.8 4.8 0.00 0.00 0.53 76 1008.0
20260508050826 30 82 4.8 8.0 0.00 0.00 0.53 77 1008.0
20260508050322 30 70 4.8 4.8 0.00 0.00 0.53 78 1009.0
20260508045823 29 151 1.6 1.6 0.00 0.00 0.53 78 1009.0
20260508045323 30 105 0.0 1.6 0.00 0.00 0.53 78 1009.0
20260508044822 30 100 1.6 1.6 0.00 0.00 0.53 79 1009.0
20260508044323 29 27 1.6 3.2 0.00 0.00 0.53 79 1009.0
20260508043823 29 88 1.6 1.6 0.00 0.00 0.53 80 1009.0
20260508043324 29 105 1.6 1.6 0.00 0.00 0.53 80 1009.0
20260508042823 29 60 1.6 1.6 0.00 0.00 0.53 80 1009.0
20260508042323 29 113 1.6 1.6 0.00 0.00 0.53 79 1009.0
20260508041825 29 101 1.6 1.6 0.00 0.00 0.53 79 1009.0
20260508041325 29 110 0.0 0.0 0.00 0.00 0.53 80 1009.0
20260508040826 29 116 1.6 1.6 0.00 0.00 0.53 80 1009.0
20260508040322 29 66 4.8 4.8 0.00 0.00 0.53 79 1009.0
20260508035823 29 57 3.2 3.2 0.00 0.00 0.53 80 1009.0
20260508035326 28 110 0.0 1.6 0.00 0.00 0.53 80 1008.0
20260508034823 28 144 1.6 1.6 0.00 0.00 0.53 81 1008.0